Location: Dana
(41.8364°N, 106.7042°W)
Time: 17:45:09
(UTC+00:00)

SR - Pass Details

Date: 18 May 2026
Orbit: 567 x 853 km, 66.7° (Epoch: 9 June)

Event Time Altitude Azimuth Distance (km) Brightness Sun altitude
Rises 15:12:23 0° 265° (W) 3,060 ? 36.8°
Reaches altitude 10° 15:15:42 10° 289° (WNW) 2,212 ? 37.4°
Maximum altitude 15:18:31 15° 323° (NW) 1,958 ? 37.9°
Drops below altitude 10° 15:21:27 10° 357° (N) 2,322 ? 38.5°
Sets 15:25:06 0° 20° (NNE) 3,314 ? 39.1°
